Marianna, WV

1:22 PM EDT on August 24, 2016 (GMT -0400)
Pineville

Weather History for KI16 - September, 2013

Change the Weather History Date:

Sunday, September 8, 2013

  Actual Average (KBKW) Record (KBKW)
Temperature  
Mean Temperature 72 °F 66 °F  
Max Temperature 85 °F 76 °F 89 °F (1933)
Min Temperature 58 °F 56 °F 36 °F (1951)
Degree Days  
Heating Degree Days 0 2  
Month to date heating degree days 11  
Since 1 July heating degree days 32  
Cooling Degree Days 6 3  
Month to date cooling degree days 27  
Year to date cooling degree days 520  
Growing Degree Days 22 (Base 50)    
Moisture  
Dew Point 66 °F    
Average Humidity 88    
Maximum Humidity 100    
Minimum Humidity 54    
Precipitation  
Precipitation 0.00 in 0.10 in 1.55 in (2004)
Month to date precipitation 0.79  
Year to date precipitation 30.45  
Snow  
Snow 0.00 in - - ()
Month to date snowfall  
Since 1 September snowfall  
Snow Depth -    
Sea Level Pressure  
Sea Level Pressure 30.10 in    
Wind  
Wind Speed - (North)    
Max Wind Speed -    
Max Gust Speed -    
Visibility 8 miles    
Events      
T = Trace of Precipitation, MM = Missing Value Source: NWS Daily Summary

Daily Weather History Graph

Daily Weather History Graph

Search for Another Location

Airport or City:

Trip Planner

Search our weather history database for the weather conditions in past years. The results will help you decide how hot, cold, wet, or windy it might be!

Date:

Astronomy

Sep. 08, 2013 Rise Set
Actual Time 7:02 AM EDT 7:44 PM EDT
Civil Twilight 6:36 AM EDT 8:10 PM EDT
Nautical Twilight 6:04 AM EDT 8:42 PM EDT
Astronomical Twilight 5:32 AM EDT 9:14 PM EDT
Moon 10:13 AM EDT (9/8) 9:24 PM EDT (9/8)
Length of Visible Light 13h 34m
Length of Day
12h 41m
Waxing Crescent, 11% of the Moon is Illuminated
Sep 8
Waxing Crescent
Sep 12
First Quarter
Sep 19
Full
Sep 26
Last Quarter
Oct 4
New

Hourly Weather History & Observations

Time (EDT) Temp. Heat Index Dew Point Humidity Pressure Visibility Wind Dir Wind Speed Gust Speed Precip Events Conditions
12:15 AM 60.3 °F - 60.3 °F 100% 30.12 in 10.0 mi North - - N/A   Clear
12:35 AM 60.1 °F - 60.1 °F 100% 30.12 in 10.0 mi North - - N/A   Clear
12:55 AM 59.9 °F - 59.9 °F 100% 30.11 in 7.0 mi North - - N/A   Clear
1:15 AM 59.4 °F - 59.4 °F 100% 30.12 in 7.0 mi North - - N/A   Clear
1:35 AM 59.5 °F - 59.5 °F 100% 30.12 in 7.0 mi North - - N/A   Clear
1:55 AM 59.2 °F - 59.2 °F 100% 30.12 in 7.0 mi North - - N/A   Scattered Clouds
2:15 AM 59.4 °F - 59.4 °F 100% 30.11 in 10.0 mi North - - N/A   Mostly Cloudy
2:35 AM 59.2 °F - 59.2 °F 100% 30.11 in 7.0 mi North - - N/A   Scattered Clouds
2:55 AM 59.0 °F - 59.0 °F 100% 30.11 in 7.0 mi North - - N/A   Scattered Clouds
3:15 AM 59.0 °F - 59.0 °F 100% 30.11 in 7.0 mi North - - N/A   Scattered Clouds
3:35 AM 59.0 °F - 59.0 °F 100% 30.10 in 7.0 mi North - - N/A   Clear
3:55 AM 58.6 °F - 58.6 °F 100% 30.10 in 7.0 mi North - - N/A   Clear
4:15 AM 58.6 °F - 58.6 °F 100% 30.10 in 7.0 mi North - - N/A   Clear
4:35 AM 58.5 °F - 58.5 °F 100% 30.10 in 10.0 mi North - - N/A   Scattered Clouds
4:55 AM 58.5 °F - 58.5 °F 100% 30.10 in 7.0 mi North - - N/A   Scattered Clouds
5:15 AM 58.8 °F - 58.8 °F 100% 30.10 in 7.0 mi North - - N/A   Clear
5:35 AM 59.2 °F - 59.2 °F 100% 30.10 in 10.0 mi North - - N/A   Clear
5:55 AM 59.4 °F - 59.4 °F 100% 30.10 in 10.0 mi North - - N/A   Clear
6:15 AM 59.5 °F - 59.5 °F 100% 30.10 in 10.0 mi North - - N/A   Scattered Clouds
6:35 AM 59.9 °F - 59.9 °F 100% 30.10 in 10.0 mi North - - N/A   Scattered Clouds
6:55 AM 59.9 °F - 59.9 °F 100% 30.10 in 10.0 mi North - - N/A   Clear
7:15 AM 59.9 °F - 59.9 °F 100% 30.10 in 10.0 mi North - - N/A   Scattered Clouds
7:35 AM 60.1 °F - 60.1 °F 100% 30.10 in 10.0 mi North - - N/A   Clear
7:55 AM 60.1 °F - 60.1 °F 100% 30.11 in 10.0 mi North - - N/A   Clear
8:15 AM 61.2 °F - 61.2 °F 100% 30.11 in 10.0 mi North - - N/A   Clear
8:35 AM 62.6 °F - 62.6 °F 100% 30.11 in 10.0 mi North - - N/A   Clear
8:55 AM 63.1 °F - 63.0 °F 99% 30.11 in 10.0 mi North - - N/A   Clear
9:15 AM 64.0 °F - 63.3 °F 97% 30.11 in 10.0 mi North - - N/A   Clear
9:35 AM 67.5 °F - 64.2 °F 89% 30.12 in 10.0 mi North - - N/A   Scattered Clouds
9:55 AM 69.3 °F - 64.2 °F 84% 30.12 in 10.0 mi North - - N/A   Mostly Cloudy
10:15 AM 70.0 °F - 64.4 °F 82% 30.11 in 10.0 mi North - - N/A   Overcast
10:35 AM 71.8 °F - 65.1 °F 79% 30.12 in 10.0 mi North - - N/A   Overcast
10:55 AM 72.1 °F - 65.7 °F 80% 30.12 in 10.0 mi North - - N/A   Mostly Cloudy
11:15 AM 75.2 °F - 66.4 °F 74% 30.11 in 10.0 mi North - - N/A   Scattered Clouds
11:35 AM 76.5 °F - 67.1 °F 73% 30.11 in 10.0 mi North - - N/A   Scattered Clouds
11:55 AM 78.8 °F - 68.2 °F 70% 30.10 in 10.0 mi North - - N/A   Clear
12:15 PM 79.7 °F - 68.5 °F 69% 30.10 in 10.0 mi North - - N/A   Clear
12:35 PM 80.8 °F 83.9 °F 69.3 °F 68% 30.10 in 10.0 mi North - - N/A   Scattered Clouds
12:55 PM 82.2 °F 85.5 °F 69.1 °F 64% 30.10 in 10.0 mi North - - N/A   Clear
1:15 PM 83.7 °F 87.7 °F 69.8 °F 63% 30.10 in 10.0 mi North - - N/A   Clear
1:35 PM 84.0 °F 87.8 °F 69.4 °F 61% 30.09 in 10.0 mi North - - N/A   Scattered Clouds
1:55 PM 83.3 °F 86.6 °F 68.4 °F 61% 30.09 in 10.0 mi North - - N/A   Mostly Cloudy
2:15 PM 84.7 °F 87.9 °F 68.2 °F 57% 30.08 in 10.0 mi North - - N/A   Scattered Clouds
2:35 PM 85.3 °F 88.5 °F 68.0 °F 56% 30.08 in 10.0 mi North - - N/A   Scattered Clouds
2:55 PM 85.1 °F 88.5 °F 68.2 °F 57% 30.08 in 10.0 mi North - - N/A   Scattered Clouds
3:15 PM 85.5 °F 88.2 °F 67.1 °F 54% 30.08 in 10.0 mi North - - N/A   Scattered Clouds
3:35 PM 82.4 °F 87.0 °F 71.2 °F 69% 30.07 in 10.0 mi North - - N/A   Scattered Clouds
3:55 PM 80.8 °F 85.1 °F 72.3 °F 75% 30.07 in 10.0 mi North - - N/A   Mostly Cloudy
4:15 PM 78.3 °F - 71.8 °F 80% 30.08 in 10.0 mi North - - N/A   Overcast
4:35 PM 83.5 °F 87.7 °F 70.3 °F 64% 30.07 in 10.0 mi North - - N/A   Mostly Cloudy
4:55 PM 83.8 °F 88.9 °F 71.2 °F 66% 30.06 in 10.0 mi North - - N/A   Mostly Cloudy
5:15 PM 81.9 °F 86.2 °F 71.1 °F 70% 30.06 in 10.0 mi North - - N/A   Scattered Clouds
5:35 PM 82.4 °F 86.7 °F 70.7 °F 68% 30.06 in 10.0 mi North - - N/A   Scattered Clouds
5:55 PM 78.8 °F - 72.9 °F 82% 30.06 in 10.0 mi North - - N/A   Scattered Clouds
6:15 PM 77.4 °F - 72.3 °F 84% 30.06 in 10.0 mi North - - N/A   Clear
6:35 PM 76.1 °F - 72.0 °F 87% 30.07 in 10.0 mi North - - N/A   Scattered Clouds
6:55 PM 75.6 °F - 72.1 °F 89% 30.07 in 10.0 mi North - - N/A   Scattered Clouds
7:15 PM 74.8 °F - 72.1 °F 91% 30.06 in 7.0 mi North - - N/A   Clear
7:35 PM 73.8 °F - 71.6 °F 93% 30.07 in 7.0 mi North - - N/A   Clear
7:55 PM 72.9 °F - 71.1 °F 94% 30.08 in 7.0 mi North - - N/A   Clear
8:15 PM 71.8 °F - 70.7 °F 96% 30.09 in 7.0 mi North - - N/A   Scattered Clouds
8:35 PM 71.6 °F - 70.5 °F 96% 30.09 in 5.0 mi North - - N/A   Scattered Clouds
8:55 PM 70.7 °F - 70.0 °F 98% 30.10 in 5.0 mi North - - N/A   Clear
9:15 PM 70.2 °F - 69.6 °F 98% 30.10 in 4.0 mi North - - N/A   Clear
9:35 PM 69.8 °F - 69.6 °F 99% 30.11 in 4.0 mi North - - N/A   Clear
9:55 PM 69.8 °F - 69.8 °F 100% 30.11 in 4.0 mi North - - N/A   Scattered Clouds
10:15 PM 68.9 °F - 68.9 °F 100% 30.11 in 4.0 mi North - - N/A   Scattered Clouds
10:35 PM 68.9 °F - 68.9 °F 100% 30.12 in 2.0 mi North - - N/A   Mist
10:55 PM 68.5 °F - 68.5 °F 100% 30.12 in 4.0 mi North - - N/A   Clear
11:15 PM 68.0 °F - 68.0 °F 100% 30.13 in 2.0 mi North - - N/A   Mist
11:35 PM 67.6 °F - 67.6 °F 100% 30.13 in 4.0 mi North - - N/A   Clear
11:55 PM 67.6 °F - 67.6 °F 100% 30.14 in 1.8 mi North - - N/A   Mist